SCP
0 0 0 0 0 0 0 0 0 0 0 0 0 0 0 0 0 0 0 0 0 0 0 0 0 0 0 0 0 0 0 0 0 0 0 0 0 0 0 0 0 0 0
0 0 0 0 0 0 0 0 0 0 0 0 0 0 0 0 0 0 0 0 0 0 0 0 0 0 0 0 0 0 0 0 0 0 0 0 0 0 0 0 0 0 0
0 0 0 0 0 0 0 0 0 0 0 0 0 0 0 0 0 0 0 0 0 0 0 0 0 0 0 0 0 0 0 0 0 0 0 0 0 0 0 0 0 0 0
0 0 0 0 0 0 0 0 0 0 0 0 0 0 0 0 0 0 0 0 0 0 0 0 0 0 0 0 0 0 0 0 0 0 0 0 0 0 0 0 0 0 0
0 0 0 0 0 0 0 0 0 0 0 0 0 0 0 0 0 0 0 0 0 0 0 0 0 0 0 0 0 0 0 0 0 0 0 0 0 0 0 0 0 0 0
0 0 0 0 0 0 0 0 0 0 0 0 0 0 0 0 0 0 0 0 0 0 0 0 0 0 0 0 0 0 0 0 0 0 0 0 0 0 0 0 0 0 0
0 0 0 0 0 0 0 0 0 0 0 1 1 1 0 0 0 0 0 0 0 0 0 0 0 0 0 0 0 0 0 0 0 0 0 0 0 0 0 0 0 0 0
0 0 0 0 0 0 0 0 0 0 1 1 1 1 0 0 0 0 0 0 0 0 0 0 0 0 0 0 0 0 0 0 0 0 0 0 0 0 0 0 0 0 0
0 0 0 0 0 0 0 0 0 0 1 1 1 0 0 0 0 0 0 0 0 0 0 0 0 0 0 0 0 0 0 0 0 0 0 0 0 0 0 0 0 0 0
0 0 0 0 0 0 0 0 0 0 0 0 0 0 0 0 0 0 0 0 0 0 0 0 0 0 0 0 0 0 0 0 0 0 0 0 0 0 0 0 0 0 0
0 0 0 0 0 0 0 0 0 0 0 0 0 0 0 0 0 0 0 0 0 0 0 0 0 0 0 0 0 0 0 0 0 0 0 0 0 0 0 0 0 0 0
0 0 0 0 0 0 0 0 0 0 0 0 0 0 0 0 0 0 0 0 0 0 0 0 0 0 0 0 0 0 0 0 0 0 0 0 0 0 0 0 0 0 0
0 0 0 0 0 0 0 0 0 0 0 0 0 0 0 0 0 0 0 0 0 0 0 0 0 0 0 0 0 0 0 0 0 0 0 0 0 0 0 0 0 0 0
0 0 0 0 0 0 0 0 0 0 0 0 0 0 0 0 0 0 0 0 0 0 0 0 0 0 0 0 0 0 0 0 0 0 0 0 0 0 0 0 0 0 0
0 0 0 0 0 0 0 0 0 0 0 0 0 0 0 0 0 0 0 0 0 0 0 0 0 0 0 0 0 0 0 0 0 0 0 0 0 0 0 0 0 0 0
0 0 0 0 0 0 0 0 0 0 0 0 0 0 0 0 0 0 0 0 0 0 0 0 0 0 0 0 0 0 0 0 0 0 0 0 0 0 0 0 0 0 0
0 0 0 0 0 0 0 0 0 0 0 0 0 0 0 0 0 0 0 0 0 0 0 0 0 0 0 0 0 0 0 0 0 0 0 0 0 0 0 0 0 0 0
0 0 0 0 0 0 0 0 0 0 0 0 0 0 0 0 0 0 0 0 0 0 0 0 0 0 0 0 0 0 0 0 0 0 0 0 0 0 0 0 0 0 0
0 0 0 0 0 0 0 0 0 0 0 0 0 0 0 0 0 0 0 0 0 0 0 0 0 0 0 0 0 0 0 0 0 0 0 0 0 0 0 0 0 0 0
0 0 0 0 0 0 0 0 0 0 0 0 0 0 0 0 0 0 0 0 0 0 0 0 0 0 0 0 0 0 0 0 0 0 0 0 0 0 0 0 0 0 0
0 0 0 0 0 0 0 0 0 0 0 0 0 0 0 0 0 0 0 0 0 0 0 0 0 0 0 0 0 0 0 0 0 0 0 0 0 0 0 0 0 0 0
0 0 0 0 0 0 0 0 0 0 0 0 0 0 0 0 0 0 0 0 0 0 0 0 0 0 0 0 0 0 0 0 0 0 0 0 0 0 0 0 0 0 0
0 0 0 0 0 0 0 0 0 0 0 0 0 0 0 0 0 0 0 0 0 0 0 0 0 0 0 0 0 0 0 0 0 0 0 0 0 0 0 0 0 0 0
0 0 0 0 0 0 0 0 0 0 0 0 0 0 0 0 0 0 0 0 0 0 0 0 0 0 0 0 0 0 0 0 0 0 0 0 0 0 0 0 0 0 0
0 0 0 0 0 0 0 0 0 0 0 0 0 0 0 0 0 0 0 0 0 0 0 0 0 0 0 0 0 0 0 0 0 0 0 0 0 0 0 0 0 0 0
0 0 0 0 0 0 0 0 0 0 0 0 0 0 0 0 0 0 0 0 0 0 0 0 0 0 0 0 0 0 0 0 0 0 0 0 0 0 0 0 0 0 0
Wind_Speed
16 16 16 16 16 15 14 15 14 13 14 14 14 14 14 13 13 12 11 11 11 10 8 9 9 7 5 5 5 5 5 5 6 5 3 4 6 7 6 7 7 8 8
14 15 15 15 15 15 14 14 14 13 13 13 13 13 13 13 13 13 12 11 11 11 10 9 9 6 8 6 5 6 5 6 5 6 4 4 6 6 7 8 7 7 8
13 14 14 14 15 15 14 13 13 13 12 12 12 13 12 12 12 12 11 11 11 10 10 10 9 9 9 6 6 6 4 4 4 5 5 4 4 5 7 8 9 8 8
13 13 14 14 14 14 13 12 13 12 12 12 12 11 11 11 11 10 10 10 9 8 8 8 8 9 8 7 6 6 4 4 4 5 5 5 5 5 6 7 8 7 8
13 13 13 12 12 12 12 12 11 11 11 11 10 10 10 9 9 9 9 9 8 8 7 7 7 7 7 6 5 5 5 4 4 4 5 5 5 5 6 6 8 8 9
13 12 11 11 11 11 11 11 11 11 10 10 10 10 10 7 11 13 10 9 8 8 8 7 6 7 7 9 8 7 7 5 5 4 5 6 8 7 6 6 7 8 8
12 12 12 12 11 11 11 11 11 11 10 10 10 10 9 9 13 14 12 8 8 7 7 7 5 5 7 6 7 8 7 7 6 5 6 7 8 7 7 8 8 9 10
12 12 12 12 12 11 11 11 11 10 10 9 9 9 8 9 13 13 12 8 6 6 6 6 6 6 5 5 5 5 5 5 5 6 6 7 7 7 7 8 9 9 9
13 13 12 13 13 12 12 11 10 10 9 8 8 9 9 9 12 13 12 7 5 6 5 5 5 5 6 6 5 4 4 4 4 7 8 8 8 9 8 6 6 7 9
13 13 13 13 13 13 12 11 9 9 9 8 8 7 8 8 11 12 11 6 6 5 4 4 4 4 6 7 5 4 4 4 4 4 5 6 6 6 7 6 5 7 8
12 12 12 12 12 12 12 10 10 10 10 9 9 7 7 8 11 12 10 5 5 5 4 3 3 5 5 5 4 3 3 3 3 3 4 4 4 4 4 5 4 5 7
13 13 12 12 11 10 12 11 11 11 11 10 9 8 6 6 7 9 10 7 6 5 4 3 3 5 4 4 3 2 2 3 2 3 3 4 4 4 5 5 5 5 6
14 14 13 13 11 11 12 12 11 9 8 8 7 7 6 5 6 9 9 8 7 4 3 4 4 5 4 3 1 1 1 1 2 3 4 4 4 5 5 5 5 5 6
16 14 13 13 12 11 9 8 8 8 8 8 8 7 6 5 5 5 5 6 7 5 4 5 6 5 3 1 1 0 1 2 2 3 4 4 4 4 4 4 5 5 6
15 13 13 12 12 11 9 7 7 6 6 8 7 7 8 6 6 7 6 5 5 5 5 3 2 2 1 0 0 1 1 2 2 3 4 4 4 4 5 4 5 5 6
15 13 11 10 10 10 11 10 12 10 13 11 10 9 7 9 12 11 9 9 9 9 5 3 2 1 1 1 1 1 2 2 3 3 4 4 4 5 5 5 5 5 6
16 14 11 11 11 11 10 11 11 12 14 13 13 12 12 13 13 12 11 10 9 7 3 2 2 1 1 1 1 2 2 2 3 3 4 4 4 5 5 5 5 5 6
15 13 12 11 11 11 10 10 10 11 10 8 10 13 13 13 12 12 11 8 5 3 2 2 1 1 1 1 1 2 2 3 3 3 4 4 4 4 5 5 5 6 6
14 11 11 10 10 10 10 10 9 10 9 9 8 9 11 11 11 9 7 4 3 3 2 1 1 1 1 1 2 2 3 3 3 3 4 4 4 4 5 5 5 7 6
12 15 13 11 11 10 10 9 9 9 9 8 7 7 6 6 5 5 3 3 2 2 2 1 1 1 1 2 2 2 3 3 3 3 4 4 4 4 5 6 5 6 5
13 14 16 12 10 10 9 9 9 8 8 7 6 6 7 5 4 4 3 2 2 1 1 1 1 1 2 2 2 3 3 3 3 3 4 4 4 4 4 5 5 5 5
12 11 10 10 10 9 9 9 8 8 8 8 7 7 8 4 4 3 2 2 1 1 1 1 1 1 2 2 3 3 3 4 3 3 4 4 4 4 4 4 4 5 5
12 12 11 10 10 13 11 9 8 8 8 7 6 6 5 4 3 2 2 1 1 1 1 1 2 2 2 2 3 3 4 4 4 4 4 4 4 4 4 4 5 5 5
13 13 12 11 10 9 9 9 8 8 7 7 6 5 4 3 3 2 1 1 1 1 1 1 2 3 4 3 3 3 3 4 4 4 6 5 5 5 4 4 5 5 5
12 12 11 11 10 10 9 9 8 8 7 6 5 4 4 3 2 2 1 1 1 1 2 2 2 3 4 5 5 4 6 8 8 6 5 5 6 5 5 5 5 5 5
12 12 10 9 9 9 9 8 8 7 6 5 4 4 3 3 2 2 1 1 1 1 2 2 3 4 5 5 6 7 8 9 9 9 6 5 5 5 5 5 5 5 5
Wind_Direction
189 190 192 194 195 195 195 197 196 194 190 190 191 192 193 192 191 191 194 189 194 193 191 198 200 192 191 195 196 204 216 224 246 262 256 256 258 263 266 271 279 281 281
184 186 188 188 188 190 193 194 192 191 188 189 188 189 190 190 190 191 192 191 194 194 192 193 195 189 198 196 199 208 214 222 240 261 264 260 265 273 279 282 283 282 283
178 180 181 183 185 188 189 187 186 185 184 184 184 186 186 187 188 190 190 191 195 195 191 192 194 192 200 199 204 210 214 220 236 255 269 272 271 273 283 284 283 283 285
174 176 178 181 183 184 182 180 180 180 179 180 181 182 182 182 185 185 184 187 190 189 188 192 192 197 203 199 202 209 208 214 227 246 262 271 274 280 284 287 290 290 291
170 173 176 175 175 174 173 173 173 174 175 174 173 174 174 175 179 177 176 179 180 180 181 189 191 197 204 200 198 202 201 212 225 244 260 272 275 281 282 289 291 298 295
168 170 167 166 166 166 167 166 166 166 166 165 168 168 169 172 171 172 172 174 177 180 181 185 186 191 201 205 208 208 207 214 227 242 259 268 279 286 290 291 293 297 299
165 163 163 162 161 161 159 159 160 160 160 162 163 165 168 166 166 170 172 171 175 181 181 180 182 189 196 200 207 214 220 228 238 255 263 272 286 293 295 290 289 291 292
160 159 159 158 157 155 157 158 156 155 157 158 159 161 160 160 165 166 165 169 167 172 178 182 184 184 187 192 198 213 229 233 242 256 269 281 290 296 293 290 293 293 292
160 160 160 158 155 155 156 155 152 150 150 150 153 156 156 155 160 161 162 160 158 162 167 173 183 186 181 190 200 216 237 249 248 263 281 289 295 295 297 295 293 293 295
163 159 156 156 154 154 152 148 144 142 140 137 138 146 149 148 152 156 160 155 156 155 156 165 180 190 180 190 206 218 241 261 266 268 273 280 285 288 290 287 291 293 299
153 149 150 151 149 145 141 139 137 134 132 131 129 131 136 138 147 154 159 158 157 156 158 165 166 176 182 193 215 233 261 282 272 271 278 285 290 291 292 292 290 286 290
146 144 144 143 138 138 135 134 136 135 133 133 130 125 123 130 138 149 153 147 148 154 160 161 152 164 175 186 210 262 281 282 279 282 285 288 292 295 298 297 295 285 279
143 141 138 135 134 137 137 137 137 138 137 138 137 134 129 126 127 136 145 141 138 137 131 128 130 142 158 172 166 276 276 282 291 289 291 294 298 300 301 301 299 290 283
141 138 137 135 132 130 129 134 138 142 142 141 142 140 135 133 133 137 141 136 129 122 119 122 124 120 118 95 104 256 303 313 306 297 300 303 306 305 302 306 305 306 302
138 136 135 131 130 124 116 112 124 125 140 145 146 145 144 144 142 140 141 141 139 131 127 123 133 146 160 170 289 312 312 310 304 306 304 304 307 308 308 311 306 305 303
139 139 136 133 129 125 119 100 75 93 97 99 110 120 114 120 132 134 129 126 128 135 131 142 153 168 196 243 277 295 303 307 308 305 302 304 307 308 308 308 307 304 305
142 140 137 136 134 132 130 126 115 93 90 98 108 112 117 126 129 130 127 125 128 135 133 147 160 179 214 254 278 291 299 307 305 299 298 301 305 305 306 308 310 308 307
136 134 135 136 135 134 132 129 129 129 123 106 102 110 116 121 124 127 128 126 127 129 136 151 166 187 228 259 276 287 294 298 296 295 297 299 300 303 306 309 312 315 313
134 134 132 129 128 128 127 125 125 125 124 124 121 114 114 115 116 119 127 130 139 146 150 158 174 208 245 264 275 283 287 289 296 297 297 300 300 301 303 307 308 312 308
126 127 127 128 127 127 127 126 127 128 128 131 132 132 132 131 131 129 128 132 141 150 161 177 199 231 250 261 270 277 281 284 288 287 294 297 296 295 298 301 305 307 306
127 127 125 124 126 127 128 128 129 130 130 129 128 134 143 140 137 138 143 146 153 165 183 206 227 241 252 261 267 271 275 280 285 290 293 295 294 293 295 298 302 302 305
127 129 128 126 125 125 124 125 126 126 128 128 127 130 135 130 134 139 143 146 152 177 214 236 250 258 262 265 268 272 274 278 283 287 292 293 292 291 291 294 299 304 306
125 125 122 121 122 125 122 122 124 126 127 129 131 135 139 136 137 140 141 144 155 193 227 243 257 265 269 267 265 266 271 277 283 289 290 290 290 290 290 292 295 300 305
125 125 125 125 125 126 125 124 124 125 128 131 134 136 137 137 139 139 144 151 181 225 244 251 258 265 273 276 272 268 269 276 280 273 270 274 281 285 286 287 290 296 299
123 124 125 127 128 127 126 126 127 129 131 133 135 136 137 138 142 148 160 180 219 243 262 268 263 265 269 274 276 278 279 279 277 274 262 259 266 271 275 280 284 290 293
122 123 124 125 126 127 129 131 131 133 134 135 136 137 140 145 154 167 183 202 230 253 264 266 270 276 278 275 274 277 281 280 278 275 269 262 261 264 268 271 276 279 283